Regional Weather Roundup
Issued by NWS

Home | Current Version | Previous Version | Text Only | Print | Product List | Glossary On
Versions: 1 2 3 4 5 6 7 8 9 10 11 12 13 14 15 16 17 18 19 20 21 22 23 24 25 26 27 28 29 30 31 32 33 34 35 36 37 38 39 40 41 42 43 44 45 46 47 48 49 50
000
ASUS44 KOUN 280510
RWROK

WEATHER ROUNDUP FOR OKLAHOMA
NATIONAL WEATHER SERVICE NORMAN OK
1200 AM CDT THU AUG 28 2014

NOTE: "FAIR" INDICATES FEW OR NO CLOUDS BELOW 12,000 FEET WITH NO
      SIGNIFICANT WEATHER AND/OR OBSTRUCTIONS TO VISIBILITY.

OKZ001>007-009>012-014-015-017-280600-
NORTHWEST OKLAHOMA AND THE PANHANDLE

CITY           SKY/WX    TMP DP  RH WIND       PRES   REMARKS
GAGE           MOCLDY    74  68  81 S9        30.00F
ENID/WOODRING  MOCLDY    79  66  65 S7        29.98S
$$

OKZ016-021>023-033>039-044-045-280600-
SOUTHWEST OKLAHOMA

CITY           SKY/WX    TMP DP  RH WIND       PRES   REMARKS
LAWTON/REGL    PTCLDY    84  64  50 SE12      30.00S
LAWTON/FT SILL PTCLDY    82  66  56 SE10      30.00S
FREDERICK      CLEAR     84  63  49 SE12      29.97S
CLINTON        PTCLDY    83  62  49 S16       30.04S
HOBART         PTCLDY    83  63  50 S16       30.01F
ALTUS AFB      CLEAR     83  64  52 SE12      30.00S
$$

OKZ018>020-024>031-280600-
CENTRAL OKLAHOMA

CITY           SKY/WX    TMP DP  RH WIND       PRES   REMARKS
OKLAHOMA CITY  MOCLDY    79  65  62 SE9       30.01F
OKC/WILEY POST PTCLDY    84  65  52 S13       30.01F
OKC/TINKER AFB CLEAR     80  67  66 S8        30.02F
STILLWATER     PTCLDY    82  65  56 S8        30.00S
GUTHRIE        PTCLDY    82  66  58 SE8       30.00F
$$

OKZ008-013-054>072-280600-
NORTHEAST OKLAHOMA

CITY           SKY/WX    TMP DP  RH WIND       PRES   REMARKS
TULSA          CLEAR     84  69  60 S7        29.99F
TULSA/JONES    CLEAR     76  70  82 CALM      30.00S
PONCA CITY     MOCLDY    83  64  52 S12       29.99S
BARTLESVILLE   CLEAR     72  69  90 CALM      30.00F
MUSKOGEE       CLEAR     76  69  79 SE7       30.02F
$$

OKZ032-040>043-046>053-073>077-280600-
SOUTH CENTRAL/SOUTHEAST OKLAHOMA

CITY           SKY/WX    TMP DP  RH WIND       PRES   REMARKS
ARDMORE/DWNTWN CLEAR     77  64  65 CALM      30.01F
MCALESTER      CLEAR     77  68  73 SE3       30.03S
$$



USA.gov is the U.S. government's official web portal to all federal, state and local government web resources and services.